Simultaneous Nadir Overpasses (SNOs) Predictions

Prediction of SNOs between METOP-A and TERRA Satellite Orbit:

Table of predicted SNOs for the next 14.0 days since TLE Epoch: 2/8/2014
Index Date (METOP-A) Time (METOP-A) Lat,Lon (METOP-A) SZA (METOP-A ) Date (TERRA) Time (TERRA) Lat,Lon (TERRA) SZA (TERRA ) Distance(km) Time Diff (sec)
1 02/09/2014 16:01:52 81.33, -13.11 98.19 02/09/2014 16:03:06 81.33, -13.30 98.20 3.25 74
2 02/09/2014 16:52:32 -81.34, 154.41 81.80 02/09/2014 16:52:33 -81.33, 154.24 81.83 3.10 1
3 02/09/2014 17:43:12 81.34, -37.82 98.24 02/09/2014 17:41:59 81.33, -37.97 98.19 2.67 73
4 02/12/2014 11:36:15 81.33, 53.17 97.26 02/12/2014 11:37:23 81.34, 53.22 97.30 0.98 68
5 02/12/2014 12:26:55 -81.33,-139.27 82.73 02/12/2014 12:26:50 -81.33,-139.21 82.73 1.10 5
6 02/15/2014 07:10:37 81.33, 119.44 96.30 02/15/2014 07:11:39 81.33, 119.52 96.33 1.35 62
7 02/15/2014 08:01:16 -81.34, -72.57 83.64 02/15/2014 08:01:05 -81.35, -72.50 83.64 1.42 11
8 02/18/2014 02:44:59 81.33,-173.90 95.36 02/18/2014 02:45:55 81.33,-174.03 95.37 2.12 56
9 02/18/2014 03:35:39 -81.34, -6.26 84.62 02/18/2014 03:35:22 -81.33, -6.41 84.65 2.56 17
10 02/20/2014 22:19:21 81.34,-107.26 94.39 02/20/2014 22:20:10 81.34,-107.42 94.40 2.78 49




NCC Satellite Simultaneous Nadir Overpasses (SNOs) Prediction Service
